Regional Weather Roundup
Issued by NWS

Home | Current Version | Previous Version | Graphics & Text | Print | Product List | Glossary On
Versions: 1 2 3 4 5 6 7 8 9 10 11 12 13 14 15 16 17 18 19 20 21 22 23 24 25 26 27 28 29 30 31 32 33 34 35 36 37 38 39 40 41 42 43 44 45 46 47 48 49 50
000
ASUS45 KSLC 281610
RWRUT

UTAH REGIONAL WEATHER ROUNDUP
NATIONAL WEATHER SERVICE SALT LAKE CITY UT
1000 AM MDT THU AUG 28 2014

UTZ001>011-023>025-281700-

NORTHERN UTAH

CITY           SKY/WX    TMP DP  RH WIND       PRES   REMARKS
HILL AFB       SUNNY     65  50  57 E12       30.26S
LOGAN          SUNNY     63  54  72 N3        30.25S
OGDEN          SUNNY     68  50  52 CALM      30.24S
PROVO AIRPORT  SUNNY     63  52  67 SE3       30.29S
SALT LAKE CITY MOSUNNY   69  52  54 S9        30.23S
VERNAL         CLOUDY    58  53  84 CALM      30.28S
WENDOVER       SUNNY     70  46  43 E5        30.23R
HEBER CITY     CLOUDY    50  48  93 CALM      30.34S
WEST JORDAN    SUNNY     70  55  60 SE12      30.26S

$$

UTZ012>022-026-027-281700-

SOUTHERN UTAH

CITY           SKY/WX    TMP DP  RH WIND       PRES   REMARKS
BRYCE CANYON   SUNNY     59  42  53 NW3       30.42S
CEDAR CITY     SUNNY     64  46  52 CALM      30.30S
MILFORD        SUNNY     66  47  50 S8        30.27S
MOAB/CYNLANDS  SUNNY     69  49  48 E3        30.23S
PRICE          SUNNY     63  47  55 VRB3      30.29F
ST GEORGE      SUNNY     73  46  38 CALM      30.17F

$$

REGIONAL REPORTS     COLORADO/ARIZONA

CITY           SKY/WX    TMP DP  RH WIND       PRES   REMARKS
CRAIG, CO      LGT RAIN  54  51  90 SW6       30.30S
GRAND JUNCTION MOSUNNY   61  53  75 CALM      30.26S
RIFLE          CLOUDY    56  53  90 W7        30.30R
MONTROSE       LGT RAIN  57  52  83 S7        30.33S
CORTEZ         SUNNY     63  49  60 NE6       30.29F
PAGE, AZ       SUNNY     73  45  36 N5        30.23S
GRAND CANYON   SUNNY     70  41  34 N8        30.37S
KINGMAN        SUNNY     81  45  28 CALM      30.15S
FLAGSTAFF      SUNNY     66  40  38 CALM      30.38S

$$

REGIONAL REPORTS    NEVADA/IDAHO/WYOMING

CITY           SKY/WX    TMP DP  RH WIND       PRES   REMARKS
LAS VEGAS, NV  SUNNY     85  39  19 S6        30.04S
ELY            SUNNY     65  41  41 S7        30.35S
ELKO           SUNNY     62  39  42 NE3       30.28S
POCATELLO, ID  SUNNY     72  53  51 CALM      30.22S
BURLEY         SUNNY     68  54  60 SE3       30.18S
EVANSTON, WY   MOSUNNY   57  50  77 SW9       30.37S
ROCK SPRINGS   PTSUNNY   55  48  77 W12       30.33R

$$


USA.gov is the U.S. government's official web portal to all federal, state and local government web resources and services.